Time,TemperatureF,DewpointF,PressureIn,WindDirection,WindDirectionDegrees,WindSpeedMPH,WindSpeedGustMPH,Humidity,HourlyPrecipIn,Conditions,Clouds,dailyrainin,SoftwareType,DateUTC
2013-07-03 00:11:00,62.0,51.0,-100.00,SSE,150,7.0,11.0,66,0.00,,,-99.99,,2013-07-03 05:11:00,
2013-07-03 00:23:00,62.0,51.0,-100.00,SSE,150,7.0,11.0,66,0.00,,,-99.99,,2013-07-03 05:23:00,
2013-07-03 00:37:00,62.0,51.0,-100.00,SE,145,7.0,9.0,68,0.00,,,-99.99,,2013-07-03 05:37:00,
2013-07-03 00:46:00,61.0,51.0,-100.00,SSE,150,5.0,7.0,69,0.00,,,-99.99,,2013-07-03 05:46:00,
2013-07-03 00:56:00,61.0,51.0,-100.00,SSE,150,4.0,6.0,70,0.00,,,-99.99,,2013-07-03 05:56:00,
2013-07-03 01:39:00,60.0,52.0,-100.00,SE,135,4.0,6.0,73,0.00,,,-99.99,,2013-07-03 06:39:00,
2013-07-03 01:48:00,60.0,52.0,-100.00,SE,140,4.0,6.0,74,0.00,,,-99.99,,2013-07-03 06:48:00,
2013-07-03 01:54:00,60.0,52.0,-100.00,SE,140,3.0,4.0,74,0.00,,,-99.99,,2013-07-03 06:54:00,
2013-07-03 02:25:00,60.0,52.0,-100.00,SSE,150,1.0,2.0,75,0.00,,,-99.99,,2013-07-03 07:25:00,
2013-07-03 02:37:00,59.0,52.0,-100.00,SE,140,2.0,2.0,76,0.00,,,-99.99,,2013-07-03 07:37:00,
2013-07-03 02:47:00,59.0,51.0,-100.00,ESE,120,2.0,2.0,77,0.00,,,-99.99,,2013-07-03 07:47:00,
2013-07-03 02:56:00,58.0,52.0,-100.00,ESE,110,1.0,3.0,78,0.00,,,-99.99,,2013-07-03 07:56:00,
2013-07-03 03:08:00,58.0,52.0,-100.00,ENE,75,0.0,2.0,79,0.00,,,-99.99,,2013-07-03 08:08:00,
2013-07-03 03:36:00,57.0,52.0,-100.00,ENE,65,1.0,2.0,81,0.00,,,-99.99,,2013-07-03 08:36:00,
2013-07-03 03:45:00,57.0,52.0,-100.00,NE,55,2.0,2.0,83,0.00,,,-99.99,,2013-07-03 08:45:00,
2013-07-03 03:56:00,56.0,52.0,-100.00,ENE,65,1.0,2.0,83,0.00,,,-99.99,,2013-07-03 08:56:00,
2013-07-03 04:16:00,56.0,52.0,-100.00,ENE,75,2.0,3.0,85,0.00,,,-99.99,,2013-07-03 09:16:00,
2013-07-03 04:37:00,56.0,52.0,-100.00,NE,35,1.0,2.0,85,0.00,,,-99.99,,2013-07-03 09:37:00,
2013-07-03 05:05:00,55.0,51.0,-100.00,ESE,120,2.0,3.0,86,0.00,,,-99.99,,2013-07-03 10:05:00,
2013-07-03 05:15:00,55.0,51.0,-100.00,SE,125,2.0,3.0,86,0.00,,,-99.99,,2013-07-03 10:15:00,
2013-07-03 05:28:00,55.0,51.0,-100.00,SE,130,2.0,4.0,86,0.00,,,-99.99,,2013-07-03 10:28:00,
2013-07-03 05:55:00,56.0,52.0,-100.00,ESE,120,2.0,4.0,86,0.00,,,-99.99,,2013-07-03 10:55:00,
2013-07-03 06:06:00,55.0,51.0,-100.00,East,95,3.0,4.0,86,0.00,,,-99.99,,2013-07-03 11:06:00,
2013-07-03 06:16:00,55.0,51.0,-100.00,East,100,2.0,4.0,86,0.00,,,-99.99,,2013-07-03 11:16:00,
2013-07-03 06:38:00,56.0,52.0,-100.00,ESE,105,2.0,2.0,86,0.00,,,-99.99,,2013-07-03 11:38:00,
2013-07-03 06:43:00,57.0,53.0,-100.00,SE,125,4.0,4.0,86,0.00,,,-99.99,,2013-07-03 11:43:00,
2013-07-03 07:08:00,59.0,55.0,-100.00,East,85,1.0,4.0,84,0.00,,,-99.99,,2013-07-03 12:08:00,
2013-07-03 07:16:00,59.0,54.0,-100.00,ENE,75,2.0,3.0,83,0.00,,,-99.99,,2013-07-03 12:16:00,
2013-07-03 07:25:00,59.0,54.0,-100.00,East,85,1.0,3.0,83,0.00,,,-99.99,,2013-07-03 12:25:00,
2013-07-03 07:37:00,59.0,54.0,-100.00,East,85,1.0,3.0,83,0.00,,,-99.99,,2013-07-03 12:37:00,
2013-07-03 07:43:00,61.0,55.0,-100.00,ESE,110,2.0,4.0,81,0.00,,,-99.99,,2013-07-03 12:43:00,
2013-07-03 08:06:00,61.0,55.0,-100.00,ESE,120,3.0,5.0,78,0.00,,,-99.99,,2013-07-03 13:06:00,
2013-07-03 08:16:00,62.0,55.0,-100.00,ENE,75,2.0,5.0,78,0.00,,,-99.99,,2013-07-03 13:16:00,
2013-07-03 08:35:00,63.0,55.0,-100.00,ESE,110,3.0,4.0,76,0.00,,,-99.99,,2013-07-03 13:35:00,
2013-07-03 08:46:00,63.0,55.0,-100.00,ESE,110,2.0,4.0,74,0.00,,,-99.99,,2013-07-03 13:46:00,
2013-07-03 08:54:00,65.0,55.0,-100.00,East,95,3.0,4.0,70,0.00,,,-99.99,,2013-07-03 13:54:00,
2013-07-03 09:06:00,66.0,54.0,-100.00,ESE,110,3.0,5.0,65,0.00,,,-99.99,,2013-07-03 14:06:00,
2013-07-03 09:15:00,67.0,51.0,-100.00,ESE,105,3.0,6.0,57,0.00,,,-99.99,,2013-07-03 14:15:00,
2013-07-03 09:37:00,67.0,51.0,-100.00,East,100,3.0,7.0,57,0.00,,,-99.99,,2013-07-03 14:37:00,
2013-07-03 09:45:00,68.0,51.0,-100.00,SE,145,1.0,6.0,54,0.00,,,-99.99,,2013-07-03 14:45:00,
2013-07-03 09:54:00,69.0,52.0,-100.00,SE,130,1.0,6.0,53,0.00,,,-99.99,,2013-07-03 14:54:00,
2013-07-03 10:37:00,70.0,50.0,-100.00,North,5,1.0,8.0,48,0.00,,,-99.99,,2013-07-03 15:37:00,
2013-07-03 10:47:00,71.0,50.0,-100.00,ENE,75,1.0,7.0,47,0.00,,,-99.99,,2013-07-03 15:47:00,
2013-07-03 10:55:00,70.0,50.0,-100.00,ENE,60,4.0,6.0,47,0.00,,,-99.99,,2013-07-03 15:55:00,
2013-07-03 11:23:00,71.0,51.0,-100.00,East,90,2.0,6.0,48,0.00,,,-99.99,,2013-07-03 16:23:00,
2013-07-03 11:37:00,71.0,50.0,-100.00,ENE,75,4.0,9.0,47,0.00,,,-99.99,,2013-07-03 16:37:00,
2013-07-03 11:46:00,72.0,50.0,-100.00,East,80,6.0,8.0,46,0.00,,,-99.99,,2013-07-03 16:46:00,
2013-07-03 11:55:00,74.0,51.0,-100.00,ENE,60,3.0,8.0,44,0.00,,,-99.99,,2013-07-03 16:55:00,
2013-07-03 12:40:00,75.0,51.0,-100.00,NE,55,2.0,7.0,42,0.00,,,-99.99,,2013-07-03 17:40:00,
2013-07-03 12:53:00,74.0,47.0,-100.00,NNE,15,5.0,9.0,38,0.00,,,-99.99,,2013-07-03 17:53:00,
2013-07-03 13:15:00,77.0,49.0,-100.00,WSW,255,2.0,6.0,36,0.00,,,-99.99,,2013-07-03 18:15:00,
2013-07-03 13:36:00,77.0,49.0,-100.00,ESE,115,1.0,6.0,36,0.00,,,-99.99,,2013-07-03 18:36:00,
2013-07-03 14:04:00,75.0,47.0,-100.00,ESE,110,2.0,6.0,36,0.00,,,-99.99,,2013-07-03 19:04:00,
2013-07-03 14:15:00,76.0,48.0,-100.00,NW,305,6.0,9.0,36,0.00,,,-99.99,,2013-07-03 19:15:00,
2013-07-03 14:37:00,76.0,48.0,-100.00,NNW,330,6.0,9.0,36,0.00,,,-99.99,,2013-07-03 19:37:00,
2013-07-03 14:46:00,76.0,48.0,-100.00,WNW,300,4.0,9.0,35,0.00,,,-99.99,,2013-07-03 19:46:00,
2013-07-03 14:55:00,76.0,47.0,-100.00,NNW,335,5.0,9.0,35,0.00,,,-99.99,,2013-07-03 19:55:00,
2013-07-03 15:24:00,77.0,47.0,-100.00,North,5,4.0,9.0,34,0.00,,,-99.99,,2013-07-03 20:24:00,
2013-07-03 15:44:00,77.0,47.0,-100.00,SSE,160,1.0,3.0,34,0.00,,,-99.99,,2013-07-03 20:44:00,
2013-07-03 15:54:00,77.0,47.0,-100.00,North,10,1.0,3.0,34,0.00,,,-99.99,,2013-07-03 20:54:00,
2013-07-03 16:13:00,76.0,45.0,-100.00,North,0,3.0,5.0,32,0.00,,,-99.99,,2013-07-03 21:13:00,
2013-07-03 16:25:00,76.0,45.0,-100.00,North,0,3.0,5.0,32,0.00,,,-99.99,,2013-07-03 21:25:00,
2013-07-03 16:35:00,76.0,45.0,-100.00,SSE,165,1.0,4.0,33,0.00,,,-99.99,,2013-07-03 21:35:00,
2013-07-03 16:44:00,75.0,44.0,-100.00,ENE,75,3.0,4.0,33,0.00,,,-99.99,,2013-07-03 21:44:00,
2013-07-03 16:53:00,76.0,46.0,-100.00,NW,305,2.0,4.0,34,0.00,,,-99.99,,2013-07-03 21:53:00,
2013-07-03 17:05:00,76.0,46.0,-100.00,NW,305,2.0,4.0,34,0.00,,,-99.99,,2013-07-03 22:05:00,
2013-07-03 17:14:00,76.0,46.0,-100.00,North,0,2.0,5.0,34,0.00,,,-99.99,,2013-07-03 22:14:00,
2013-07-03 17:37:00,76.0,45.0,-100.00,North,0,1.0,6.0,33,0.00,,,-99.99,,2013-07-03 22:37:00,
2013-07-03 17:45:00,76.0,46.0,-100.00,WNW,290,2.0,5.0,35,0.00,,,-99.99,,2013-07-03 22:45:00,
2013-07-03 17:54:00,78.0,47.0,-100.00,SSW,195,2.0,4.0,33,0.00,,,-99.99,,2013-07-03 22:54:00,
2013-07-03 18:04:00,79.0,47.0,-100.00,North,0,3.0,6.0,32,0.00,,,-99.99,,2013-07-03 23:04:00,
2013-07-03 18:39:00,78.0,47.0,-100.00,SSW,200,3.0,5.0,33,0.00,,,-99.99,,2013-07-03 23:39:00,
2013-07-03 18:54:00,77.0,49.0,-100.00,SW,235,2.0,7.0,37,0.00,,,-99.99,,2013-07-03 23:54:00,
2013-07-03 19:24:00,76.0,49.0,-100.00,SSW,210,3.0,6.0,38,0.00,,,-99.99,,2013-07-04 00:24:00,
2013-07-03 19:36:00,75.0,48.0,-100.00,WSW,245,2.0,6.0,37,0.00,,,-99.99,,2013-07-04 00:36:00,
2013-07-03 19:47:00,75.0,48.0,-100.00,West,265,2.0,5.0,37,0.00,,,-99.99,,2013-07-04 00:47:00,
2013-07-03 19:55:00,75.0,48.0,-100.00,WSW,240,2.0,4.0,39,0.00,,,-99.99,,2013-07-04 00:55:00,
2013-07-03 20:15:00,74.0,48.0,-100.00,SW,230,2.0,4.0,40,0.00,,,-99.99,,2013-07-04 01:15:00,
2013-07-03 20:23:00,73.0,48.0,-100.00,WSW,250,1.0,4.0,41,0.00,,,-99.99,,2013-07-04 01:23:00,
2013-07-03 20:37:00,72.0,49.0,-100.00,WSW,250,1.0,2.0,42,0.00,,,-99.99,,2013-07-04 01:37:00,
2013-07-03 20:43:00,72.0,48.0,-100.00,SSW,210,2.0,3.0,42,0.00,,,-99.99,,2013-07-04 01:43:00,
2013-07-03 20:56:00,71.0,47.0,-100.00,SW,215,2.0,4.0,42,0.00,,,-99.99,,2013-07-04 01:56:00,
2013-07-03 21:06:00,71.0,47.0,-100.00,SW,215,2.0,4.0,42,0.00,,,-99.99,,2013-07-04 02:06:00,
2013-07-03 21:47:00,69.0,48.0,-100.00,SSW,205,4.0,4.0,47,0.00,,,-99.99,,2013-07-04 02:47:00,
2013-07-03 21:55:00,69.0,48.0,-100.00,SSW,205,4.0,4.0,47,0.00,,,-99.99,,2013-07-04 02:55:00,
2013-07-03 22:04:00,68.0,49.0,-100.00,SSW,210,4.0,5.0,49,0.00,,,-99.99,,2013-07-04 03:04:00,
2013-07-03 22:14:00,67.0,49.0,-100.00,SSW,210,6.0,6.0,52,0.00,,,-99.99,,2013-07-04 03:14:00,
2013-07-03 22:35:00,67.0,50.0,-100.00,SW,215,2.0,6.0,53,0.00,,,-99.99,,2013-07-04 03:35:00,
2013-07-03 22:45:00,68.0,49.0,-100.00,SW,220,3.0,5.0,51,0.00,,,-99.99,,2013-07-04 03:45:00,
2013-07-03 22:56:00,68.0,49.0,-100.00,SSW,210,3.0,6.0,50,0.00,,,-99.99,,2013-07-04 03:56:00,
2013-07-03 23:11:00,67.0,48.0,-100.00,SW,220,3.0,4.0,50,0.00,,,-99.99,,2013-07-04 04:11:00,
2013-07-03 23:22:00,66.0,50.0,-100.00,SW,215,6.0,6.0,55,0.00,,,-99.99,,2013-07-04 04:22:00,
2013-07-03 23:33:00,66.0,51.0,-100.00,SSW,210,4.0,6.0,59,0.00,,,-99.99,,2013-07-04 04:33:00,
2013-07-03 23:43:00,66.0,53.0,-100.00,SW,215,6.0,7.0,61,0.00,,,-99.99,,2013-07-04 04:43:00,
2013-07-03 23:52:00,66.0,53.0,-100.00,SW,215,6.0,7.0,64,0.00,,,-99.99,,2013-07-04 04:52:00,